Location: Castle Hill Houses
(40.8186°N, 73.8497°W)
Time: 22:59:01
(UTC+00:00)

Cosmos 1680 Rocket - Pass Details

Date: 26 January 2020
Orbit: 760 x 781 km, 74.1° (Epoch: 18 February)

Event Time Altitude Azimuth Distance (km) Brightness Sun altitude
Exits shadow 10:49:37 19° 250° (WSW) 1,800 4.9 -15.5°
Maximum altitude 10:52:32 31° 298° (WNW) 1,354 4.2 -15.0°
Drops below altitude 10° 10:57:13 10° 360° (N) 2,341 5.9 -14.1°
Sets 10:59:54 0° 11° (N) 3,271 6.7 -13.6°
